Hourly Data Report for November 22, 2014

All times are specified in Local Standard Time (LST). Add 1 hour to adjust for Daylight Saving Time where and when it is observed.

Metadata including Station Name, Province, Latitude, Longitude, Elevation, Climate ID, WMO ID, TC ID
GRANBY
QUEBEC
Latitude: 45°22'22.000" N Longitude: 72°46'26.000" W Elevation: 86.00 m
Climate ID: 7022802 WMO ID: TC ID: MGB
Hourly Data Report for November 21, 2014
Temp Definition
°C

Dew Point Temp Definition
°C

Rel Hum Definition
%

Wind Dir Definition
10's deg
Wind Spd Definition
km/h

Visibility Definition
km

Stn Press Definition
kPa

Hmdx Definition

Wind Chill Definition

Weather Definition

00:00 -6.2 -12.2 62 21 7 99.82 -10 LegendNANA
01:00 -5.5 -11.7 62 22 10 99.87 -10 LegendNANA
02:00 -5.6 -11.0 66 23 8 99.96 -9 LegendNANA
03:00 -5.0 -9.4 71 24 14 100.02 -10 LegendNANA
04:00 -5.2 -8.8 76 25 10 100.11 -10 LegendNANA
05:00 -5.3 -8.9 76 27 13 100.24 -10 LegendNANA
06:00 -5.6 -10.1 71 29 13 100.40 -11 LegendNANA
07:00 -6.9 -12.6 64 31 8 100.57 -11 LegendNANA
08:00 -6.6 -11.7 67 27 4 100.72 -9 LegendNANA
09:00 -6.5 -11.6 67 28 11 100.85 -11 LegendNANA
10:00 -5.6 -12.1 60 28 15 100.94 -11 LegendNANA
11:00 -5.3 -12.4 57 27 16 101.04 -11 LegendNANA
12:00 -5.5 -13.0 55 27 16 101.06 -11 LegendNANA
13:00 -5.2 -14.9 47 26 16 101.12 -11 LegendNANA
14:00 -5.4 -13.8 52 26 15 101.18 -11 LegendNANA
15:00 -6.0 -13.9 53 24 15 101.27 -12 LegendNANA
16:00 -6.8 -15.1 51 24 11 101.39 -12 LegendNANA
17:00 -7.5 -15.0 55 24 11 101.49 -13 LegendNANA
18:00 -7.7 -14.5 58 24 9 101.59 -12 LegendNANA
19:00 -7.7 -14.5 58 27 9 101.63 -12 LegendNANA
20:00 -10.1 -15.0 68 20 5 101.65 -13 LegendNANA
21:00 -8.2 -13.5 66 22 4 101.65 -10 LegendNANA
22:00 -7.1 -13.1 62 21 5 101.62 -10 LegendNANA
23:00 -6.9 -13.0 62 20 5 101.58 -9 LegendNANA

Notes on Data Quality.

Legend
  • E = Estimated
  • M = Missing
  • NA = Not Available
  • ‡ = Partner data that is not subject to review by the National Climate Archives